contact:dominique.lefevre@mio.osupytheas.fr, maurice.libes@osupytheas.fr, didier.mallarino@osupytheas.fr
Project:EMSO http://www.emso-fr.org/EMSO-France
Depth: 2436.0 m
Title:EMSO Ligure Ouest : Data MII capteur AQUADOPP
Date,Latitude,Longitude,X_East,Y_North,Z_Up,Amplitude_X,Amplitude_Y,Amplitude_Z,Batterie,SoundSpeed,Heading,Pitch,Roll,Pressure,TIS,Speed,Direction
, degrees North, degrees East, m.s-1, m.s-1,m.s-1, 1, 1, 1, Volt, m.s-1, degree, degree, degree, dbar, degree_C, m.s-1, degree
2019-08-31T00:09:04,42.805,6.029,-0.022,0.021,-0.049,100.0,110.0,98.0,13.4,1505.3,323.1,-0.8,1.8,2470.122,13.31,0.03,313.7
2019-08-31T00:12:05,42.805,6.029,0.012,0.015,-0.029,101.0,110.0,98.0,13.4,1505.3,323.1,-0.7,1.8,2470.092,13.32,0.019,38.7
2019-08-31T00:15:06,42.805,6.029,0.014,0.022,-0.03,101.0,112.0,98.0,13.4,1505.3,327.4,-0.7,1.8,2470.108,13.33,0.026,32.5
2019-08-31T00:18:07,42.805,6.029,0.0,0.024,-0.011,100.0,109.0,98.0,13.4,1505.3,325.0,-0.7,1.9,2470.036,13.33,0.024,0.0
2019-08-31T00:21:08,42.805,6.029,0.007,0.004,-0.055,101.0,108.0,99.0,13.4,1505.3,324.0,-0.7,1.9,2470.044,13.33,0.008,60.3
2019-08-31T00:24:09,42.805,6.029,0.018,0.038,0.007,102.0,110.0,97.0,13.4,1505.4,326.5,-0.8,1.9,2470.049,13.34,0.042,25.3
2019-08-31T00:27:10,42.805,6.029,0.0,0.035,-0.039,102.0,111.0,98.0,13.4,1505.4,327.8,-0.7,1.8,2470.091,13.34,0.035,0.0
2019-08-31T00:30:11,42.805,6.029,-0.002,-0.007,-0.02,102.0,111.0,98.0,13.4,1505.4,328.1,-0.7,1.8,2470.037,13.34,0.007,195.9
2019-08-31T00:33:12,42.805,6.029,-0.034,0.013,-0.035,101.0,109.0,98.0,13.3,1505.4,327.2,-0.7,1.8,2470.021,13.34,0.036,290.9
2019-08-31T00:36:13,42.805,6.029,0.0,0.007,-0.01,100.0,109.0,98.0,13.4,1505.4,327.9,-0.7,1.8,2470.022,13.34,0.007,0.0
2019-08-31T00:39:14,42.805,6.029,-0.006,0.011,-0.026,102.0,110.0,98.0,13.3,1505.4,328.7,-0.7,1.8,2469.985,13.34,0.012,331.4
2019-08-31T00:42:15,42.805,6.029,-0.008,0.039,-0.019,100.0,111.0,100.0,13.4,1505.4,326.8,-0.7,1.9,2470.036,13.34,0.039,348.4
2019-08-31T00:45:16,42.805,6.029,0.01,0.015,-0.019,101.0,109.0,99.0,13.4,1505.4,326.7,-0.7,1.8,2470.018,13.34,0.018,33.7
2019-08-31T00:48:17,42.805,6.029,0.004,0.02,0.003,101.0,109.0,98.0,13.3,1505.4,328.4,-0.7,1.8,2470.012,13.34,0.02,11.3
2019-08-31T00:51:18,42.805,6.029,0.002,0.023,-0.047,102.0,110.0,99.0,13.4,1505.4,328.3,-0.7,1.8,2470.032,13.34,0.023,5.0
2019-08-31T00:54:19,42.805,6.029,0.001,0.043,-0.041,102.0,110.0,98.0,13.3,1505.4,327.8,-0.8,1.8,2470.032,13.34,0.043,1.3
2019-08-31T00:57:20,42.805,6.029,-0.016,0.02,-0.003,101.0,110.0,98.0,13.4,1505.4,327.1,-0.7,1.8,2469.976,13.34,0.025,321.3
2019-08-31T01:00:21,42.805,6.029,-0.002,-0.001,-0.052,102.0,110.0,98.0,13.4,1505.4,327.9,-0.7,1.8,2469.947,13.34,0.002,243.4
2019-08-31T01:03:22,42.805,6.029,0.011,0.009,-0.026,101.0,109.0,98.0,13.4,1505.4,323.7,-0.7,1.9,2469.996,13.34,0.014,50.7
2019-08-31T01:06:23,42.805,6.029,0.0,-0.001,-0.022,100.0,109.0,99.0,13.4,1505.4,324.0,-0.7,1.8,2469.945,13.34,0.001,180.0
2019-08-31T01:09:24,42.805,6.029,-0.008,0.008,-0.008,101.0,110.0,100.0,13.4,1505.4,326.8,-0.7,1.8,2469.95,13.34,0.011,315.0
2019-08-31T01:12:25,42.805,6.029,-0.011,0.025,-0.054,100.0,111.0,98.0,13.4,1505.4,324.8,-0.7,1.9,2470.0,13.34,0.027,336.3
2019-08-31T01:15:26,42.805,6.029,-0.004,0.03,-0.034,102.0,109.0,98.0,13.4,1505.4,324.3,-0.7,1.8,2470.002,13.34,0.03,352.4
2019-08-31T01:18:27,42.805,6.029,-0.006,0.004,-0.021,101.0,110.0,97.0,13.4,1505.4,328.7,-0.7,1.8,2469.998,13.34,0.007,303.7
2019-08-31T01:21:28,42.805,6.029,0.008,0.02,-0.014,101.0,108.0,99.0,13.3,1505.4,323.2,-0.7,1.8,2469.978,13.34,0.021,21.8
2019-08-31T01:24:29,42.805,6.029,0.015,-0.004,-0.046,101.0,110.0,97.0,13.3,1505.3,323.8,-0.7,1.8,2470.004,13.33,0.015,104.9
2019-08-31T01:27:30,42.805,6.029,0.001,0.007,-0.021,101.0,109.0,98.0,13.3,1505.3,325.6,-0.7,1.8,2469.954,13.33,0.007,8.1
2019-08-31T01:30:31,42.805,6.029,-0.016,0.008,-0.049,101.0,109.0,97.0,13.4,1505.3,324.9,-0.7,1.8,2469.963,13.33,0.017,296.6
2019-08-31T01:33:32,42.805,6.029,-0.013,0.007,-0.031,100.0,110.0,98.0,13.4,1505.4,327.8,-0.7,1.9,2469.985,13.34,0.014,298.3
2019-08-31T01:36:33,42.805,6.029,0.014,0.014,-0.013,100.0,108.0,99.0,13.4,1505.3,324.1,-0.7,1.8,2469.945,13.33,0.019,45.0
2019-08-31T01:39:34,42.805,6.029,0.004,-0.002,-0.018,101.0,109.0,98.0,13.4,1505.4,324.9,-0.7,1.8,2469.97,13.34,0.004,116.6
2019-08-31T01:42:35,42.805,6.029,-0.013,0.014,-0.016,101.0,109.0,99.0,13.4,1505.4,326.7,-0.7,1.8,2469.949,13.34,0.019,317.1
2019-08-31T01:45:36,42.805,6.029,-0.022,0.023,-0.029,100.0,109.0,99.0,13.4,1505.4,324.7,-0.7,1.9,2469.962,13.34,0.031,316.3
2019-08-31T01:48:37,42.805,6.029,-0.014,0.032,-0.022,100.0,112.0,98.0,13.4,1505.4,327.6,-0.7,1.8,2469.948,13.34,0.034,336.4
2019-08-31T01:51:38,42.805,6.029,-0.012,0.017,-0.045,102.0,110.0,98.0,13.3,1505.4,323.1,-0.7,1.8,2469.989,13.34,0.02,324.8
2019-08-31T01:54:39,42.805,6.029,0.001,0.02,-0.027,101.0,109.0,98.0,13.4,1505.4,326.4,-0.7,1.8,2469.934,13.34,0.02,2.9
2019-08-31T01:57:40,42.805,6.029,-0.001,0.006,0.0,101.0,110.0,99.0,13.4,1505.4,325.4,-0.7,1.9,2469.964,13.34,0.006,350.5
2019-08-31T02:00:41,42.805,6.029,0.009,0.029,-0.004,101.0,110.0,99.0,13.4,1505.4,327.9,-0.7,1.9,2469.968,13.34,0.03,17.2
2019-08-31T02:03:42,42.805,6.029,-0.006,0.018,-0.002,101.0,110.0,99.0,13.3,1505.4,325.3,-0.7,1.8,2469.903,13.34,0.018,341.6
2019-08-31T02:06:43,42.805,6.029,-0.003,0.01,-0.02,102.0,109.0,100.0,13.3,1505.4,324.3,-0.8,1.8,2469.938,13.34,0.01,343.3
2019-08-31T02:09:44,42.805,6.029,-0.014,0.009,-0.043,102.0,109.0,99.0,13.4,1505.4,325.3,-0.7,1.8,2469.922,13.34,0.016,302.7
2019-08-31T02:12:45,42.805,6.029,-0.009,0.018,-0.029,102.0,112.0,97.0,13.4,1505.4,325.5,-0.7,1.8,2469.946,13.34,0.02,333.4
2019-08-31T02:15:46,42.805,6.029,-0.013,0.013,-0.043,102.0,110.0,99.0,13.3,1505.4,327.8,-0.7,1.8,2469.949,13.34,0.018,315.0
2019-08-31T02:18:48,42.805,6.029,-0.004,0.008,-0.018,99.0,109.0,100.0,13.4,1505.3,323.3,-0.7,1.8,2469.927,13.33,0.008,333.4
2019-08-31T02:21:48,42.805,6.029,0.001,0.002,-0.019,102.0,108.0,98.0,13.3,1505.3,325.1,-0.7,1.8,2469.941,13.33,0.002,26.6
2019-08-31T02:24:49,42.805,6.029,-0.01,0.041,0.019,101.0,109.0,100.0,13.3,1505.4,327.7,-0.7,1.8,2469.889,13.34,0.042,346.3
2019-08-31T02:27:50,42.805,6.029,-0.011,0.001,-0.048,102.0,109.0,98.0,13.3,1505.4,323.5,-0.7,1.8,2469.93,13.34,0.011,275.2
2019-08-31T02:30:51,42.805,6.029,-0.002,0.021,-0.017,102.0,110.0,100.0,13.3,1505.4,324.6,-0.7,1.8,2469.929,13.34,0.021,354.6
2019-08-31T02:33:52,42.805,6.029,-0.006,0.013,-0.034,102.0,108.0,98.0,13.4,1505.4,327.0,-0.7,1.8,2469.934,13.34,0.014,335.2
2019-08-31T02:36:53,42.805,6.029,0.002,0.01,0.006,100.0,110.0,99.0,13.3,1505.3,326.9,-0.7,1.8,2469.947,13.33,0.01,11.3
2019-08-31T02:39:54,42.805,6.029,0.01,-0.009,-0.037,101.0,109.0,98.0,13.4,1505.3,325.2,-0.7,1.8,2469.951,13.33,0.013,132.0
2019-08-31T02:42:55,42.805,6.029,0.009,0.016,-0.036,101.0,110.0,97.0,13.4,1505.3,324.9,-0.7,1.8,2469.949,13.33,0.018,29.4
2019-08-31T02:45:56,42.805,6.029,0.013,0.007,0.006,102.0,108.0,97.0,13.4,1505.3,324.4,-0.7,1.8,2469.89,13.33,0.014,61.7
2019-08-31T02:48:57,42.805,6.029,0.006,0.007,0.005,100.0,108.0,98.0,13.3,1505.3,326.4,-0.7,1.8,2469.91,13.33,0.009,40.6
2019-08-31T02:51:58,42.805,6.029,0.001,0.016,-0.038,100.0,109.0,98.0,13.4,1505.3,323.7,-0.7,1.9,2469.957,13.33,0.016,3.6
2019-08-31T02:54:59,42.805,6.029,0.003,0.003,-0.03,103.0,108.0,97.0,13.3,1505.3,326.6,-0.7,1.8,2469.931,13.33,0.004,45.0
2019-08-31T02:58:00,42.805,6.029,-0.008,-0.001,-0.049,101.0,109.0,97.0,13.4,1505.3,325.3,-0.7,1.8,2469.949,13.33,0.008,262.9
2019-08-31T03:01:01,42.805,6.029,-0.031,0.012,-0.061,101.0,108.0,98.0,13.4,1505.3,323.2,-0.7,1.9,2469.906,13.33,0.033,291.2
2019-08-31T03:04:02,42.805,6.029,0.02,0.023,-0.03,100.0,110.0,99.0,13.4,1505.3,327.0,-0.7,1.9,2469.946,13.33,0.03,41.0
2019-08-31T03:07:03,42.805,6.029,-0.006,0.018,-0.04,101.0,109.0,99.0,13.3,1505.3,325.1,-0.7,1.8,2469.951,13.33,0.018,341.6
2019-08-31T03:10:04,42.805,6.029,0.001,0.008,-0.001,102.0,110.0,98.0,13.4,1505.4,323.0,-0.7,1.9,2469.952,13.34,0.008,7.1
2019-08-31T03:13:05,42.805,6.029,-0.023,0.011,-0.015,103.0,110.0,99.0,13.4,1505.4,324.9,-0.7,1.8,2469.947,13.34,0.025,295.6
2019-08-31T03:16:06,42.805,6.029,0.003,0.018,-0.011,102.0,110.0,97.0,13.4,1505.4,328.1,-0.7,1.8,2469.933,13.34,0.018,9.5
2019-08-31T03:19:07,42.805,6.029,0.014,0.017,-0.02,99.0,110.0,98.0,13.4,1505.4,324.4,-0.7,1.8,2469.962,13.34,0.022,39.5
2019-08-31T03:22:08,42.805,6.029,0.002,0.013,0.002,100.0,108.0,98.0,13.4,1505.4,325.4,-0.7,1.8,2469.894,13.34,0.013,8.7
2019-08-31T03:25:09,42.805,6.029,-0.028,0.017,-0.036,102.0,109.0,97.0,13.3,1505.3,324.3,-0.7,1.8,2469.989,13.33,0.032,301.3
2019-08-31T03:28:10,42.805,6.029,0.0,0.004,-0.014,102.0,108.0,98.0,13.3,1505.3,326.3,-0.7,1.8,2469.94,13.33,0.004,0.0
2019-08-31T03:31:11,42.805,6.029,-0.004,0.035,-0.014,100.0,109.0,98.0,13.4,1505.3,326.0,-0.7,1.8,2469.954,13.33,0.035,353.5
2019-08-31T03:34:12,42.805,6.029,-0.009,0.006,-0.031,101.0,110.0,98.0,13.3,1505.3,323.3,-0.7,1.8,2469.955,13.33,0.01,303.7
2019-08-31T03:37:13,42.805,6.029,0.0,0.012,0.016,102.0,109.0,98.0,13.3,1505.3,326.8,-0.7,1.8,2469.954,13.33,0.012,0.0
2019-08-31T03:40:14,42.805,6.029,0.001,0.013,-0.005,102.0,109.0,98.0,13.3,1505.3,324.9,-0.7,1.9,2469.957,13.33,0.013,4.4
2019-08-31T03:43:15,42.805,6.029,-0.01,0.02,-0.034,101.0,110.0,98.0,13.4,1505.3,327.1,-0.7,1.8,2469.97,13.33,0.022,333.4
2019-08-31T03:46:16,42.805,6.029,0.008,0.021,-0.003,102.0,110.0,98.0,13.4,1505.3,323.2,-0.7,1.9,2469.931,13.33,0.022,20.9
2019-08-31T03:49:17,42.805,6.029,0.033,-0.004,-0.011,101.0,108.0,100.0,13.4,1505.3,324.2,-0.7,1.8,2469.937,13.33,0.033,96.9
2019-08-31T03:52:18,42.805,6.029,0.004,0.004,-0.027,99.0,110.0,98.0,13.4,1505.3,325.1,-0.7,1.9,2469.971,13.33,0.005,45.0
2019-08-31T03:55:19,42.805,6.029,-0.01,0.004,0.013,101.0,110.0,99.0,13.4,1505.3,325.3,-0.7,1.8,2469.948,13.33,0.01,291.8
2019-08-31T03:58:20,42.805,6.029,-0.006,0.024,-0.022,102.0,110.0,98.0,13.3,1505.3,327.3,-0.7,1.8,2469.983,13.33,0.024,346.0
2019-08-31T04:01:21,42.805,6.029,-0.019,0.012,-0.036,102.0,109.0,98.0,13.4,1505.3,328.8,-0.7,1.8,2469.946,13.33,0.022,302.3
2019-08-31T04:04:22,42.805,6.029,0.0,0.032,-0.009,102.0,109.0,98.0,13.4,1505.3,323.8,-0.7,1.8,2469.961,13.33,0.032,0.0
2019-08-31T04:07:23,42.805,6.029,0.004,0.032,-0.023,101.0,110.0,98.0,13.3,1505.3,324.8,-0.7,1.9,2469.973,13.33,0.032,7.1
2019-08-31T04:10:24,42.805,6.029,0.015,-0.001,-0.029,101.0,110.0,97.0,13.3,1505.3,326.0,-0.7,1.8,2469.988,13.33,0.015,93.8
2019-08-31T04:13:25,42.805,6.029,0.001,0.02,-0.011,101.0,111.0,97.0,13.4,1505.3,324.4,-0.7,1.8,2470.018,13.33,0.02,2.9
2019-08-31T04:16:26,42.805,6.029,0.019,0.008,0.009,101.0,110.0,98.0,13.4,1505.3,327.6,-0.7,1.8,2469.985,13.33,0.02,67.2
2019-08-31T04:19:27,42.805,6.029,0.015,-0.004,-0.026,101.0,108.0,98.0,13.4,1505.3,323.2,-0.7,1.8,2469.985,13.33,0.015,104.9
2019-08-31T04:22:28,42.805,6.029,-0.012,0.023,-0.037,101.0,110.0,102.0,13.4,1505.3,326.7,-0.7,1.8,2470.027,13.33,0.025,332.4
2019-08-31T04:25:29,42.805,6.029,-0.016,0.018,-0.055,100.0,111.0,99.0,13.4,1505.3,324.8,-0.7,1.8,2470.003,13.33,0.024,318.4
2019-08-31T04:28:30,42.805,6.029,-0.007,0.01,-0.019,102.0,110.0,99.0,13.4,1505.3,328.0,-0.7,1.8,2469.943,13.33,0.012,325.0
2019-08-31T04:31:31,42.805,6.029,0.011,0.008,-0.039,103.0,109.0,99.0,13.4,1505.3,324.3,-0.7,1.8,2469.982,13.33,0.013,54.0
2019-08-31T04:34:32,42.805,6.029,-0.014,0.01,-0.013,101.0,111.0,100.0,13.4,1505.3,325.4,-0.7,1.8,2470.04,13.33,0.017,305.5
2019-08-31T04:37:33,42.805,6.029,0.004,0.018,-0.008,100.0,110.0,100.0,13.4,1505.3,326.7,-0.7,1.8,2469.926,13.33,0.018,12.5
2019-08-31T04:40:34,42.805,6.029,-0.017,0.017,-0.022,101.0,110.0,98.0,13.4,1505.3,324.9,-0.7,1.8,2470.011,13.33,0.024,315.0
2019-08-31T04:43:35,42.805,6.029,0.006,0.019,-0.016,101.0,110.0,98.0,13.3,1505.3,328.1,-0.7,1.8,2470.003,13.33,0.019,17.5
2019-08-31T04:46:36,42.805,6.029,0.016,0.021,-0.009,102.0,109.0,100.0,13.4,1505.3,323.7,-0.7,1.8,2470.005,13.33,0.026,37.3
2019-08-31T04:49:37,42.805,6.029,-0.02,0.0,-0.036,102.0,109.0,98.0,13.4,1505.3,323.7,-0.7,1.9,2470.03,13.33,0.02,270.0
2019-08-31T04:52:38,42.805,6.029,-0.026,0.016,0.001,101.0,109.0,100.0,13.4,1505.3,323.4,-0.7,1.8,2470.031,13.33,0.03,301.6
2019-08-31T04:55:39,42.805,6.029,0.003,0.016,-0.011,101.0,109.0,99.0,13.4,1505.3,323.3,-0.8,1.8,2470.031,13.33,0.016,10.6
2019-08-31T04:58:40,42.805,6.029,-0.001,0.007,-0.059,101.0,110.0,99.0,13.4,1505.3,325.9,-0.7,1.8,2470.013,13.33,0.007,351.9
2019-08-31T05:01:41,42.805,6.029,-0.009,0.018,-0.053,101.0,110.0,98.0,13.4,1505.3,327.4,-0.7,1.8,2470.05,13.33,0.02,333.4
2019-08-31T05:04:42,42.805,6.029,0.012,0.024,-0.006,101.0,109.0,100.0,13.4,1505.3,325.8,-0.7,1.8,2470.024,13.33,0.026,26.6
2019-08-31T05:07:43,42.805,6.029,0.037,-0.001,-0.021,102.0,109.0,99.0,13.4,1505.3,325.9,-0.7,1.8,2470.04,13.33,0.037,91.5
2019-08-31T05:10:44,42.805,6.029,-0.008,0.026,-0.018,100.0,109.0,100.0,13.4,1505.3,327.4,-0.7,1.8,2470.015,13.33,0.027,342.9
2019-08-31T05:13:45,42.805,6.029,-0.005,0.014,-0.027,102.0,110.0,98.0,13.3,1505.3,324.9,-0.7,1.8,2470.06,13.33,0.014,340.4
2019-08-31T05:16:46,42.805,6.029,-0.017,0.017,-0.03,102.0,109.0,99.0,13.3,1505.3,325.0,-0.7,1.8,2470.024,13.33,0.024,315.0
2019-08-31T05:19:47,42.805,6.029,-0.004,0.005,-0.041,102.0,109.0,98.0,13.4,1505.3,324.5,-0.8,1.8,2470.054,13.33,0.006,321.3
2019-08-31T05:22:48,42.805,6.029,0.015,0.006,-0.041,101.0,109.0,98.0,13.4,1505.3,324.6,-0.8,1.8,2470.065,13.33,0.016,68.2
2019-08-31T05:25:49,42.805,6.029,-0.006,0.006,-0.012,103.0,109.0,98.0,13.3,1505.3,324.2,-0.7,1.8,2470.056,13.33,0.008,315.0
2019-08-31T05:28:50,42.805,6.029,0.005,-0.016,-0.04,101.0,109.0,101.0,13.4,1505.3,326.2,-0.7,1.8,2470.071,13.33,0.016,162.6
2019-08-31T05:31:51,42.805,6.029,0.027,0.025,-0.002,102.0,110.0,98.0,13.4,1505.3,325.0,-0.7,1.8,2470.071,13.33,0.036,47.2
2019-08-31T05:34:52,42.805,6.029,-0.008,0.006,-0.009,101.0,110.0,98.0,13.4,1505.3,323.5,-0.7,1.8,2470.071,13.33,0.01,306.9
2019-08-31T05:37:53,42.805,6.029,-0.01,0.025,-0.037,97.0,112.0,99.0,13.4,1505.3,328.3,-0.7,1.8,2470.101,13.33,0.026,338.2
2019-08-31T05:40:54,42.805,6.029,0.016,0.018,-0.005,101.0,111.0,98.0,13.4,1505.3,325.0,-0.7,1.8,2470.079,13.33,0.024,41.6
2019-08-31T05:43:55,42.805,6.029,-0.011,0.013,-0.01,101.0,109.0,98.0,13.4,1505.3,323.2,-0.7,1.8,2470.052,13.33,0.017,319.8
2019-08-31T05:46:56,42.805,6.029,0.0,0.002,-0.028,100.0,110.0,98.0,13.4,1505.3,327.8,-0.7,1.8,2470.09,13.33,0.002,0.0
2019-08-31T05:49:57,42.805,6.029,-0.002,0.005,-0.067,101.0,109.0,98.0,13.4,1505.3,326.3,-0.7,1.8,2470.111,13.33,0.005,338.2
2019-08-31T05:52:58,42.805,6.029,-0.006,0.011,-0.026,101.0,110.0,98.0,13.4,1505.3,324.8,-0.7,1.9,2470.083,13.33,0.012,331.4
2019-08-31T05:55:59,42.805,6.029,0.007,0.014,-0.037,102.0,110.0,98.0,13.3,1505.3,324.9,-0.7,1.8,2470.085,13.33,0.015,26.6
2019-08-31T05:59:00,42.805,6.029,-0.003,-0.005,-0.019,100.0,109.0,99.0,13.3,1505.3,326.6,-0.7,1.8,2470.048,13.33,0.005,211.0
2019-08-31T06:02:01,42.805,6.029,0.039,0.022,0.009,101.0,110.0,98.0,13.3,1505.3,327.9,-0.7,1.8,2470.064,13.33,0.044,60.6
2019-08-31T06:05:02,42.805,6.029,-0.011,0.008,-0.005,100.0,112.0,98.0,13.4,1505.3,326.6,-0.7,1.8,2470.117,13.33,0.013,306.0
2019-08-31T06:08:03,42.805,6.029,0.0,0.011,-0.045,101.0,109.0,98.0,13.4,1505.3,326.4,-0.7,1.9,2470.125,13.33,0.011,0.0
2019-08-31T06:11:04,42.805,6.029,0.01,0.011,-0.021,100.0,108.0,99.0,13.4,1505.3,326.6,-0.7,1.8,2470.089,13.33,0.014,42.3
2019-08-31T06:14:05,42.805,6.029,0.03,0.018,0.0,100.0,109.0,98.0,13.4,1505.3,323.7,-0.7,1.8,2470.099,13.33,0.034,59.0
2019-08-31T06:17:06,42.805,6.029,0.006,0.015,-0.017,102.0,111.0,99.0,13.3,1505.3,326.7,-0.7,1.8,2470.11,13.33,0.016,21.8
2019-08-31T06:20:07,42.805,6.029,0.013,0.031,-0.012,101.0,109.0,99.0,13.4,1505.3,325.5,-0.7,1.8,2470.146,13.33,0.033,22.7
2019-08-31T06:23:08,42.805,6.029,0.015,0.005,-0.024,103.0,110.0,98.0,13.4,1505.3,326.1,-0.7,1.8,2470.143,13.33,0.015,71.6
2019-08-31T06:26:09,42.805,6.029,0.022,0.009,-0.005,101.0,109.0,98.0,13.3,1505.3,326.5,-0.7,1.8,2470.118,13.33,0.023,67.8
2019-08-31T06:29:10,42.805,6.029,0.011,0.013,-0.009,103.0,109.0,99.0,13.4,1505.3,326.5,-0.7,1.8,2470.125,13.33,0.017,40.2
2019-08-31T06:32:11,42.805,6.029,0.018,0.008,-0.037,102.0,110.0,98.0,13.3,1505.3,327.7,-0.8,1.8,2470.085,13.33,0.019,66.0
2019-08-31T06:35:12,42.805,6.029,-0.034,0.008,-0.049,102.0,110.0,98.0,13.3,1505.3,323.2,-0.7,1.8,2470.131,13.33,0.034,283.2
2019-08-31T06:38:13,42.805,6.029,-0.004,0.033,-0.073,102.0,110.0,97.0,13.3,1505.3,326.1,-0.7,1.8,2470.144,13.33,0.033,353.1
2019-08-31T06:41:14,42.805,6.029,-0.015,0.002,-0.006,102.0,110.0,98.0,13.4,1505.3,327.2,-0.7,1.8,2470.153,13.33,0.015,277.6
2019-08-31T06:44:15,42.805,6.029,-0.026,0.017,-0.024,103.0,109.0,98.0,13.4,1505.3,325.1,-0.7,1.8,2470.086,13.33,0.031,303.2
2019-08-31T06:47:16,42.805,6.029,-0.012,0.009,-0.031,101.0,110.0,99.0,13.3,1505.3,327.0,-0.7,1.8,2470.132,13.33,0.015,306.9
2019-08-31T06:50:17,42.805,6.029,-0.025,-0.006,-0.051,100.0,109.0,99.0,13.4,1505.3,323.3,-0.8,1.8,2470.088,13.33,0.025,256.5
2019-08-31T06:53:18,42.805,6.029,-0.02,0.015,-0.029,103.0,109.0,98.0,13.4,1505.3,326.7,-0.7,1.8,2470.102,13.33,0.025,306.9
2019-08-31T06:56:19,42.805,6.029,-0.002,-0.004,-0.061,102.0,110.0,98.0,13.3,1505.3,324.8,-0.7,1.8,2470.122,13.33,0.004,206.6
2019-08-31T06:59:20,42.805,6.029,-0.003,0.023,-0.014,101.0,110.0,98.0,13.3,1505.3,325.8,-0.7,1.8,2470.195,13.33,0.023,352.6
2019-08-31T07:02:21,42.805,6.029,-0.003,0.043,-0.015,102.0,108.0,98.0,13.4,1505.3,324.3,-0.7,1.8,2470.131,13.33,0.043,356.0
2019-08-31T07:05:22,42.805,6.029,0.001,0.002,-0.01,101.0,111.0,99.0,13.4,1505.3,324.4,-0.7,1.9,2470.14,13.33,0.002,26.6
2019-08-31T07:08:23,42.805,6.029,-0.02,0.016,-0.019,102.0,109.0,99.0,13.4,1505.3,323.9,-0.7,1.8,2470.152,13.33,0.025,308.7
2019-08-31T07:11:24,42.805,6.029,0.002,0.023,-0.01,101.0,109.0,98.0,13.3,1505.3,323.7,-0.7,1.8,2470.127,13.33,0.023,5.0
2019-08-31T07:14:25,42.805,6.029,-0.001,0.0,-0.033,101.0,109.0,98.0,13.3,1505.3,326.4,-0.7,1.8,2470.106,13.33,0.001,270.0
2019-08-31T07:17:26,42.805,6.029,-0.009,0.024,-0.021,102.0,111.0,97.0,13.4,1505.3,326.1,-0.7,1.8,2470.135,13.33,0.025,339.4
2019-08-31T07:20:27,42.805,6.029,0.005,0.001,-0.023,101.0,109.0,99.0,13.4,1505.3,326.8,-0.7,1.8,2470.114,13.33,0.005,78.7
2019-08-31T07:23:28,42.805,6.029,0.009,0.021,-0.009,102.0,110.0,98.0,13.4,1505.3,326.7,-0.7,1.8,2470.132,13.33,0.022,23.2
2019-08-31T07:26:29,42.805,6.029,0.037,0.019,0.016,103.0,109.0,99.0,13.3,1505.3,324.9,-0.7,1.8,2470.166,13.33,0.041,62.8
2019-08-31T07:29:30,42.805,6.029,0.004,0.008,-0.002,102.0,111.0,100.0,13.4,1505.3,327.4,-0.7,1.8,2470.171,13.33,0.008,26.6
2019-08-31T07:32:31,42.805,6.029,0.0,0.027,-0.003,101.0,109.0,99.0,13.4,1505.3,325.1,-0.7,1.8,2470.125,13.33,0.026,0.0
2019-08-31T07:35:32,42.805,6.029,0.03,0.014,0.001,100.0,109.0,100.0,13.4,1505.3,326.0,-0.7,1.9,2470.104,13.33,0.033,65.0
2019-08-31T07:38:33,42.805,6.029,0.005,0.016,-0.021,99.0,111.0,98.0,13.4,1505.3,326.2,-0.7,1.8,2470.177,13.33,0.016,17.4
2019-08-31T07:41:34,42.805,6.029,-0.015,0.005,-0.036,100.0,109.0,99.0,13.3,1505.3,324.8,-0.7,1.9,2470.128,13.33,0.015,288.4
2019-08-31T07:44:35,42.805,6.029,0.007,0.008,-0.005,101.0,109.0,98.0,13.4,1505.3,326.3,-0.7,1.9,2470.123,13.33,0.01,41.2
2019-08-31T07:47:36,42.805,6.029,0.0,0.008,-0.044,102.0,110.0,98.0,13.3,1505.3,327.4,-0.7,1.8,2470.186,13.33,0.008,0.0
2019-08-31T07:50:37,42.805,6.029,0.019,0.009,-0.013,101.0,110.0,97.0,13.4,1505.3,324.4,-0.7,1.9,2470.214,13.33,0.021,64.7
2019-08-31T07:53:38,42.805,6.029,0.035,0.01,0.015,101.0,110.0,98.0,13.4,1505.3,326.7,-0.7,1.8,2470.171,13.33,0.036,74.1
2019-08-31T07:56:39,42.805,6.029,0.008,0.017,-0.037,102.0,109.0,97.0,13.4,1505.3,325.9,-0.7,1.9,2470.133,13.33,0.018,25.2
2019-08-31T07:59:40,42.805,6.029,-0.017,0.022,-0.047,101.0,109.0,98.0,13.4,1505.3,324.4,-0.7,1.8,2470.125,13.33,0.027,322.3
2019-08-31T08:02:41,42.805,6.029,-0.004,0.009,-0.033,101.0,109.0,98.0,13.4,1505.3,326.4,-0.7,1.8,2470.131,13.33,0.009,336.0
2019-08-31T08:05:42,42.805,6.029,0.01,0.024,-0.003,101.0,110.0,98.0,13.4,1505.3,324.1,-0.7,1.8,2470.145,13.33,0.026,22.6
2019-08-31T08:08:43,42.805,6.029,0.008,0.013,-0.064,101.0,111.0,98.0,13.3,1505.3,327.3,-0.7,1.8,2470.135,13.33,0.015,31.6
2019-08-31T08:11:44,42.805,6.029,-0.008,0.004,-0.045,100.0,110.0,99.0,13.4,1505.3,326.5,-0.7,1.8,2470.201,13.33,0.008,296.6
2019-08-31T08:14:45,42.805,6.029,0.027,0.016,-0.015,99.0,110.0,99.0,13.4,1505.3,326.7,-0.7,1.8,2470.138,13.33,0.031,59.3
2019-08-31T08:17:46,42.805,6.029,0.018,-0.007,-0.002,101.0,110.0,97.0,13.3,1505.3,327.0,-0.7,1.8,2470.143,13.33,0.019,111.2
2019-08-31T08:20:47,42.805,6.029,-0.015,0.001,-0.035,102.0,108.0,99.0,13.4,1505.3,326.8,-0.7,1.8,2470.127,13.33,0.015,273.8
2019-08-31T08:23:48,42.805,6.029,-0.002,-0.004,-0.019,101.0,109.0,98.0,13.3,1505.3,326.3,-0.7,1.9,2470.167,13.33,0.004,206.6
2019-08-31T08:26:49,42.805,6.029,-0.026,0.016,-0.032,100.0,110.0,98.0,13.4,1505.3,325.4,-0.7,1.8,2470.173,13.33,0.03,301.6
2019-08-31T08:29:50,42.805,6.029,0.0,0.024,-0.001,101.0,109.0,99.0,13.3,1505.3,327.4,-0.7,1.8,2470.142,13.33,0.024,0.0
2019-08-31T08:32:51,42.805,6.029,0.013,0.012,-0.017,102.0,109.0,98.0,13.4,1505.3,324.6,-0.7,1.8,2470.118,13.33,0.017,47.3
2019-08-31T08:35:52,42.805,6.029,0.01,0.016,0.016,102.0,110.0,97.0,13.4,1505.3,325.7,-0.7,1.8,2470.126,13.33,0.018,32.0
2019-08-31T08:38:53,42.805,6.029,0.028,0.003,-0.016,100.0,110.0,99.0,13.4,1505.3,327.2,-0.7,1.8,2470.179,13.33,0.028,83.9
2019-08-31T08:41:54,42.805,6.029,0.034,0.005,-0.002,100.0,111.0,98.0,13.4,1505.3,322.8,-0.7,1.8,2470.172,13.33,0.034,81.6
2019-08-31T08:44:55,42.805,6.029,0.056,-0.006,0.0,102.0,109.0,98.0,13.4,1505.3,326.3,-0.7,1.8,2470.109,13.33,0.056,96.1
2019-08-31T08:47:56,42.805,6.029,0.03,0.018,-0.031,102.0,109.0,98.0,13.4,1505.3,325.4,-0.7,1.8,2470.134,13.33,0.034,59.0
2019-08-31T08:50:57,42.805,6.029,0.013,0.017,-0.002,100.0,111.0,98.0,13.4,1505.3,326.5,-0.7,1.9,2470.12,13.33,0.021,37.4
2019-08-31T08:53:58,42.805,6.029,0.005,-0.01,-0.018,102.0,108.0,99.0,13.4,1505.3,324.8,-0.7,1.8,2470.134,13.33,0.011,153.4
2019-08-31T08:56:59,42.805,6.029,0.032,0.026,0.012,102.0,109.0,98.0,13.4,1505.3,323.5,-0.7,1.9,2470.114,13.33,0.041,50.9
2019-08-31T09:00:00,42.805,6.029,-0.015,0.014,-0.044,100.0,110.0,97.0,13.4,1505.3,326.9,-0.7,1.8,2470.131,13.33,0.02,313.0
2019-08-31T09:03:01,42.805,6.029,-0.009,0.011,-0.034,101.0,109.0,99.0,13.3,1505.3,326.2,-0.7,1.9,2470.105,13.33,0.014,320.7
2019-08-31T09:06:02,42.805,6.029,-0.02,0.014,-0.039,101.0,110.0,99.0,13.4,1505.3,323.6,-0.7,1.8,2470.123,13.33,0.024,305.0
2019-08-31T09:09:03,42.805,6.029,0.008,0.014,-0.009,101.0,108.0,100.0,13.3,1505.3,324.5,-0.7,1.8,2470.126,13.33,0.016,29.7
2019-08-31T09:12:04,42.805,6.029,-0.004,0.009,-0.041,102.0,109.0,100.0,13.3,1505.3,326.0,-0.7,1.8,2470.12,13.33,0.009,336.0
2019-08-31T09:15:05,42.805,6.029,0.017,-0.007,-0.021,101.0,109.0,97.0,13.4,1505.3,325.2,-0.7,1.8,2470.129,13.33,0.018,112.4
2019-08-31T09:18:06,42.805,6.029,0.031,0.014,-0.015,101.0,109.0,98.0,13.4,1505.3,324.9,-0.7,1.9,2470.079,13.33,0.034,65.7
2019-08-31T09:21:07,42.805,6.029,-0.002,0.024,-0.015,102.0,109.0,99.0,13.4,1505.3,326.6,-0.7,1.8,2470.046,13.33,0.024,355.2
2019-08-31T09:24:08,42.805,6.029,0.014,0.024,-0.032,100.0,110.0,97.0,13.3,1505.3,325.8,-0.7,1.8,2470.129,13.33,0.027,30.3
2019-08-31T09:27:09,42.805,6.029,0.011,0.012,0.022,102.0,110.0,97.0,13.4,1505.3,325.8,-0.7,1.9,2470.104,13.33,0.016,42.5
2019-08-31T09:30:10,42.805,6.029,0.033,0.006,0.002,101.0,107.0,99.0,13.4,1505.3,324.3,-0.7,1.8,2470.095,13.33,0.033,79.7
2019-08-31T09:33:11,42.805,6.029,-0.004,0.001,-0.026,101.0,110.0,98.0,13.4,1505.3,327.3,-0.8,1.8,2470.15,13.33,0.004,284.0
2019-08-31T09:36:12,42.805,6.029,0.004,0.018,0.0,101.0,107.0,99.0,13.4,1505.3,325.4,-0.7,1.8,2470.055,13.33,0.018,12.5
2019-08-31T09:39:13,42.805,6.029,0.009,0.016,-0.018,102.0,108.0,99.0,13.4,1505.3,327.5,-0.7,1.8,2470.096,13.33,0.018,29.4
2019-08-31T09:42:14,42.805,6.029,-0.025,-0.003,-0.034,102.0,109.0,99.0,13.4,1505.3,327.0,-0.7,1.8,2470.104,13.33,0.025,263.2
2019-08-31T09:45:15,42.805,6.029,0.003,0.004,-0.048,101.0,108.0,99.0,13.4,1505.3,326.5,-0.7,1.8,2470.091,13.33,0.005,36.9